Regional Weather Roundup
Issued by NWS

Home | Current Version | Previous Version | Text Only | Print | Product List | Glossary On
Versions: 1 2 3 4 5 6 7 8 9 10 11 12 13 14 15 16 17 18 19 20 21 22 23 24 25 26 27 28 29 30 31 32 33 34 35 36 37 38 39 40 41 42 43 44 45 46 47 48 49 50
431
ASUS44 KFWD 200410
RWRTX
NORTH TEXAS HOURLY WEATHER ROUNDUP
NATIONAL WEATHER SERVICE FORT WORTH TX
1100 PM CDT TUE SEP 19 2017

NOTE: "FAIR" INDICATES FEW OR NO CLOUDS BELOW 12,000 FEET WITH NO
SIGNIFICANT WEATHER AND/OR OBSTRUCTIONS TO VISIBILITY.

TXZ118-119-200500-
DALLAS/FORT WORTH METROPLEX

CITY           SKY/WX    TMP DP  RH WIND       PRES   REMARKS
DFW AIRPORT    CLOUDY    82  69  64 NW14      29.87R THUNDER
DALLAS LOVE    CLOUDY    88  69  53 SW6       29.86S HX  92
FTW MEACHAM    CLOUDY    80  68  66 NE14      29.86F
DAL-EXECUTIVE  CLOUDY    86  70  58 S7        29.87R HX  90
FTW-ALLIANCE   TSTM      72  68  87 SE9       29.83F
FTW-NAS-JRB    CLOUDY    81  65  58 E9        29.87S
FTW-SPINKS     PTCLDY    83  69  64 CALM      29.89R
ARLINGTON      PTCLDY    85  71  63 S5        29.88R HX  90
GRAND PRAIRIE  CLOUDY    85  68  56 S6        29.89R
ADDISON        CLOUDY    85  67  53 W16       29.92R
MESQUITE       CLOUDY    81  70  68 S5        29.87S
LANCASTER      CLOUDY    84  69  61 SE3       29.88R
$$

TXZ091>094-102>105-117-120-121-131>134-200500-
NORTH CENTRAL TEXAS

CITY           SKY/WX    TMP DP  RH WIND       PRES   REMARKS
SHRMAN/DENISON CLOUDY    81  67  63 S13G20    29.81F
GAINESVILLE    CLOUDY    80  65  60 S20       29.78F
BOWIE          CLOUDY    74  67  80 SE7       29.83S
BRIDGEPORT     CLOUDY    74  64  72 SE10      29.84F
DECATUR        CLOUDY    76  61  60 CALM      29.83F
DENTON         LGT RAIN  72  66  81 SE16      29.81F
MCKINNEY       CLOUDY    84  72  67 S10       29.86S
BONHAM         CLOUDY    81  72  74 S12       29.85S
GREENVILLE     MOCLDY    82  73  74 S8        29.87S
ROCKWALL       PTCLDY    82  72  71 S14       29.87S
TERRELL        PTCLDY    84  72  67 S8        29.87R
WAXAHACHIE     CLOUDY    83  70  64 CALM      29.90R
CLEBURNE       PTCLDY    82  72  69 SE7       29.89R
GRANBURY       CLEAR     84  70  63 E7        29.87R
$$

TXZ083>090-098>101-113>116-127>130-139>142-154-155-200500-
WESTERN NORTH TEXAS

CITY           SKY/WX    TMP DP  RH WIND       PRES   REMARKS
WICHITA FALLS  CLOUDY    74  62  66 S15       29.77F
WF-KICKAPOO    PTCLDY    73  64  73 S15       29.81S
VERNON         CLOUDY    75  61  62 S16       29.79F
ABILENE        PTCLDY    79  60  52 S12       29.86R
ABILENE-DYESS  CLEAR     80  62  54 S15G24    29.83R
GRAHAM         CLOUDY    77  64  65 SE3       29.82R
BRECKENRIDGE   CLOUDY    79  61  54 SE7       29.84F
CISCO          CLOUDY    72  66  83 SE12      29.88R
EASTLAND       CLOUDY    74  63  69 SE7       29.87S
RANGER         CLOUDY    73  64  73 S7        29.86F
MINERAL WELLS  PTCLDY    76  65  68 SE8       29.83F
STEPHENVILLE   CLEAR     77  68  73 SE3       29.90S
COMANCHE       CLEAR     74  65  74 SE7       29.89R
BROWNWOOD      PTCLDY    70  64  83 CALM      29.88R
COLEMAN        CLEAR     72  63  72 S6        29.88R
$$

TXZ143>147-156>162-174-175-200500-
CENTRAL TEXAS

CITY           SKY/WX    TMP DP  RH WIND       PRES   REMARKS
WACO           CLOUDY    84  71  65 S9        29.86S
WACO-TSTC      CLEAR     84  72  65 S7        29.86S
WACO-MCGREGOR  CLOUDY    84  71  65 SE7       29.87S
HILLSBORO      CLOUDY    84  70  62 SE12      29.86F
CORSICANA      CLOUDY    82  73  74 SE8       29.88S
MEXIA          CLOUDY    80  71  74 S13       29.87S
HEARNE         CLOUDY    81  74  78 SE7       29.87R
CAMERON        MOCLDY    83  73  72 S7        29.86R
TEMPLE         CLOUDY    84  72  67 SE10      29.88R
KILLEEN        MOCLDY    83  71  67 S10       29.87R
FORT HOOD      MOCLDY    82  71  68 SE10      29.84R
GATESVILLE     CLOUDY    82  70  65 CALM      29.88S
HAMILTON       CLEAR     79  70  73 SE5       29.90R
LAMPASAS       PTCLDY    82  74  77 S6        29.87R
$$

TXZ095>097-106>112-122>126-135>138-148>153-164>167-200500-
EAST TEXAS

CITY           SKY/WX    TMP DP  RH WIND       PRES   REMARKS
PARIS          CLOUDY    80  72  76 S9        29.87F
SULPHUR SPRNGS CLOUDY    82  72  70 S9        29.89S
MOUNT PLEASANT CLOUDY    77  73  88 SE5       29.90S
GILMER         CLOUDY    80  74  80 S5        29.90R
MINEOLA        CLOUDY    81  73  78 S7        29.88S
TYLER          CLOUDY    80  75  84 S8        29.90R
LONGVIEW       CLOUDY    80  75  84 S9        29.89S
MARSHALL       PTCLDY    76  72  86 S5        29.93S
ATHENS         CLOUDY    79  72  78 SE5       29.88R
PALESTINE      PTCLDY    81  76  85 SE6       29.91R
JACKSONVILLE   CLOUDY    78  75  91 S10       29.93S
HENDERSON      CLOUDY    78  74  86 S6        29.92S
CENTER         PTCLDY    78  77  96 CALM      29.94R
NACOGDOCHES    MOCLDY    78  75  90 SE7       29.93R
LUFKIN         PTCLDY    76  75  97 SE5       29.92R
$$

SUPPLEMENTAL OBSERVATIONS (NWS FORT WORTH AREA)

CITY           SKY/WX    TMP DP  RH WIND       PRES   REMARKS
CADDO GRASSLND   N/A     82  72  69 S8          N/A
PAT MAYSE LAKE   N/A     82  75  78 SE13        N/A
LBJ GRASSLAND    N/A     75  61  60 SE3G24      N/A
POSSUM KINGDOM   N/A     77  64  65 SE6         N/A
GRANBURY         N/A     82  68  61 E6          N/A
MCGREGOR         N/A     82  68  61 SE9         N/A
TEMPLE           N/A     82  70  65 S5          N/A
$$

SUPPLEMENTAL OBSERVATIONS (NWS NORMAN AREA)

CITY           SKY/WX    TMP DP  RH WIND       PRES   REMARKS
GOODLETT         N/A     76  64  67 SE21      29.76S
ODELL            N/A     75  65  71 SE21      29.79S
CROWELL          N/A     77  65  66 S17       29.80R
KNOX CITY        N/A     81  59  47 SE17      29.82R
SEYMOUR        HVY RAIN  74  66  77 S25G45    29.82S
MILLERS CREEK    N/A     75  63  64 SE10        N/A
$$

SUPPLEMENTAL OBSERVATIONS (NWS SAN ANGELO AREA)

CITY           SKY/WX    TMP DP  RH WIND       PRES   REMARKS
WEINERT          N/A     80  62  53 SE15      29.83R
HASKELL          N/A     79  58  48 SE12G18   29.83R
THROCKMORTON     N/A     72  67  83 SE8       29.84F
STAMFORD         N/A     80  62  54 S15       29.83R
CLYDE            N/A     77  61  56 S13       29.89R
HAMBY            N/A     79  61  53 S14         N/A
IVIE RESERVOIR   N/A     72  63  73 SE6         N/A
COLORADO BEND    N/A     75  70  83 SE5G15      N/A
$$

SUPPLEMENTAL OBSERVATIONS (NWS SHREVEPORT AREA)

CITY           SKY/WX    TMP DP  RH WIND       PRES   REMARKS
CLARKSVILLE      N/A     79  70  73 S6          N/A
TEXARKANA        N/A     73  72  94 CALM        N/A
LINDEN           N/A     81  73  78 S3          N/A
GILMER           N/A     81  73  78 S5          N/A
HENDERSON        N/A     79  73  83 S3          N/A
LUFKIN           N/A     79  75  89 MISG        N/A
N SABINE NF      N/A     75  73  94 MISG        N/A
S SABINE NF      N/A     75  73  94 CALM        N/A
$$

SUPPLEMENTAL OBSERVATIONS ARE A COLLECTION OF AUTOMATED INSTRUMENTS
THAT ARE MAINTAINED BY A VARIETY OF FEDERAL AND STATE AGENCIES.
CERTAIN ELEMENTS...SUCH AS HUMIDITY VALUES AND SUSTAINED WIND
SPEEDS...MAY BE APPROXIMATED.





USA.gov is the U.S. government's official web portal to all federal, state and local government web resources and services.